When you browse on this site, cookies collect data to enhance your experience and personalize the content and advertising you see.
Visit our Privacy Policy to learn more. By continuing to use the site, you agree to this use of cookies and data.
  • în România
  • Lista ţărilor
  • Pe 7 zile
  • Temperatura apei
  • Hartă satelitară
  • Meteo pe hartă
  • Widget-uri
  • user-avatar
    Intrare

    Meteo pe oră la Maloe Svyatcovo

    Astăzi, 19 Martie, Marţi

    Timp Temperatura Precipitaţii Vânt Presiune Umiditate
    00:00 +2°C° 0.5 mm 3 m/s 742 mmHg 93%
    01:00 +2°C° 0.5 mm 2 m/s 742 mmHg 95%
    02:00 +2°C° 0.5 mm 2 m/s 742 mmHg 97%
    03:00 +3°C° 0.4 mm 1 m/s 742 mmHg 97%
    04:00 +3°C° 0.4 mm 1 m/s 742 mmHg 96%
    05:00 +2°C° 0.4 mm 1 m/s 742 mmHg 96%
    06:00 +3°C° 0 mm 1 m/s 742 mmHg 94%
    07:00 +2°C° 0 mm 2 m/s 742 mmHg 93%
    08:00 +3°C° 0 mm 2 m/s 742 mmHg 91%
    09:00 +4°C° 0 mm 2 m/s 742 mmHg 87%
    10:00 +4°C° 0 mm 2 m/s 743 mmHg 84%
    11:00 +5°C° 0 mm 2 m/s 743 mmHg 81%
    12:00 +5°C° 0 mm 3 m/s 743 mmHg 78%
    13:00 +5°C° 0 mm 3 m/s 743 mmHg 76%
    14:00 +7°C° 0 mm 3 m/s 743 mmHg 73%
    15:00 +5°C° 0 mm 3 m/s 743 mmHg 77%
    16:00 +4°C° 0 mm 3 m/s 743 mmHg 81%
    17:00 +4°C° 0 mm 2 m/s 744 mmHg 86%
    18:00 +3°C° 0 mm 2 m/s 744 mmHg 87%
    19:00 +2°C° 0 mm 2 m/s 744 mmHg 89%
    20:00 +2°C° 0 mm 2 m/s 744 mmHg 90%
    21:00 +1°C° 0 mm 2 m/s 744 mmHg 91%
    22:00 +1°C° 0 mm 2 m/s 745 mmHg 91%
    23:00 -1°C° 0 mm 2 m/s 745 mmHg 92%

    Mâine, 20 Martie, Miercuri

    Timp Temperatura Precipitaţii Vânt Presiune Umiditate
    00:00 -1°C° 0 mm 2 m/s 745 mmHg 92%
    01:00 -1°C° 0 mm 2 m/s 745 mmHg 92%
    02:00 -1°C° 0 mm 3 m/s 745 mmHg 92%
    03:00 -2°C° 0 mm 3 m/s 745 mmHg 92%
    04:00 -2°C° 0 mm 3 m/s 745 mmHg 93%
    05:00 -2°C° 0 mm 3 m/s 745 mmHg 93%
    06:00 -1°C° 0 mm 3 m/s 746 mmHg 90%
    07:00 -1°C° 0 mm 3 m/s 746 mmHg 87%
    08:00 -1°C° 0 mm 4 m/s 746 mmHg 84%
    09:00 0°C° 0 mm 4 m/s 746 mmHg 82%
    10:00 0°C° 0 mm 4 m/s 747 mmHg 81%
    11:00 0°C° 0 mm 4 m/s 747 mmHg 79%
    12:00 +1°C° 0 mm 4 m/s 747 mmHg 78%
    13:00 +1°C° 0 mm 4 m/s 747 mmHg 77%
    14:00 +1°C° 0 mm 4 m/s 747 mmHg 76%
    15:00 +1°C° 0.1 mm 4 m/s 747 mmHg 77%
    16:00 +1°C° 0.1 mm 3 m/s 747 mmHg 79%
    17:00 +1°C° 0.1 mm 3 m/s 747 mmHg 80%
    18:00 0°C° 0 mm 3 m/s 747 mmHg 82%
    19:00 -1°C° 0 mm 3 m/s 747 mmHg 84%
    20:00 -2°C° 0 mm 3 m/s 747 mmHg 86%
    21:00 -2°C° 0 mm 3 m/s 746 mmHg 85%
    22:00 -1°C° 0 mm 3 m/s 745 mmHg 84%
    23:00 -1°C° 0 mm 3 m/s 745 mmHg 84%

    Poimâine, 21 Martie, Joi

    Timp Temperatura Precipitaţii Vânt Presiune Umiditate
    00:00 -1°C° 0.2 mm 3 m/s 744 mmHg 86%
    01:00 -1°C° 0.2 mm 3 m/s 744 mmHg 87%
    02:00 -2°C° 0.2 mm 4 m/s 743 mmHg 89%
    03:00 -1°C° 0.3 mm 3 m/s 743 mmHg 90%
    04:00 -1°C° 0.3 mm 3 m/s 743 mmHg 90%
    05:00 -1°C° 0.3 mm 2 m/s 742 mmHg 91%
    06:00 0°C° 0.1 mm 3 m/s 743 mmHg 89%
    07:00 -1°C° 0.1 mm 4 m/s 743 mmHg 86%
    08:00 -1°C° 0.1 mm 4 m/s 743 mmHg 84%
    09:00 0°C° 0 mm 4 m/s 744 mmHg 81%
    10:00 0°C° 0 mm 4 m/s 744 mmHg 79%
    11:00 0°C° 0 mm 4 m/s 745 mmHg 76%
    12:00 0°C° 0 mm 4 m/s 745 mmHg 75%
    13:00 +1°C° 0 mm 4 m/s 746 mmHg 74%
    14:00 +1°C° 0 mm 4 m/s 746 mmHg 73%
    15:00 +1°C° 0 mm 4 m/s 746 mmHg 75%
    16:00 +1°C° 0 mm 3 m/s 746 mmHg 78%
    17:00 +1°C° 0 mm 3 m/s 747 mmHg 80%
    18:00 +1°C° 0 mm 2 m/s 747 mmHg 84%
    19:00 -1°C° 0 mm 2 m/s 747 mmHg 88%
    20:00 -2°C° 0 mm 2 m/s 748 mmHg 93%
    21:00 -2°C° 0 mm 2 m/s 747 mmHg 93%
    22:00 -2°C° 0 mm 2 m/s 747 mmHg 93%
    23:00 -3°C° 0 mm 2 m/s 747 mmHg 94%

    22 Martie, Vineri

    Timp Temperatura Precipitaţii Vânt Presiune Umiditate
    00:00 -2°C° 0 mm 2 m/s 747 mmHg 93%
    01:00 -2°C° 0 mm 2 m/s 746 mmHg 93%
    02:00 -2°C° 0 mm 3 m/s 746 mmHg 93%
    03:00 -1°C° 0 mm 3 m/s 746 mmHg 91%
    04:00 0°C° 0 mm 3 m/s 745 mmHg 89%
    05:00 0°C° 0 mm 3 m/s 745 mmHg 87%
    06:00 +1°C° 0 mm 3 m/s 744 mmHg 89%
    07:00 +1°C° 0 mm 3 m/s 744 mmHg 90%
    08:00 +2°C° 0 mm 3 m/s 744 mmHg 91%
    09:00 +2°C° 0.3 mm 3 m/s 743 mmHg 90%
    10:00 +3°C° 0.3 mm 4 m/s 743 mmHg 90%
    11:00 +3°C° 0.3 mm 4 m/s 742 mmHg 90%
    12:00 +4°C° 0.1 mm 4 m/s 741 mmHg 90%
    13:00 +4°C° 0.1 mm 4 m/s 740 mmHg 90%
    14:00 +5°C° 0.1 mm 5 m/s 740 mmHg 90%
    15:00 +5°C° 0.2 mm 5 m/s 739 mmHg 89%
    16:00 +5°C° 0.2 mm 5 m/s 738 mmHg 88%
    17:00 +4°C° 0.2 mm 6 m/s 737 mmHg 88%
    18:00 +3°C° 0.2 mm 6 m/s 737 mmHg 81%
    19:00 +2°C° 0.2 mm 7 m/s 737 mmHg 75%
    20:00 0°C° 0.2 mm 7 m/s 737 mmHg 69%
    21:00 -1°C° 0 mm 7 m/s 737 mmHg 71%
    22:00 -1°C° 0 mm 7 m/s 737 mmHg 73%
    23:00 -2°C° 0 mm 8 m/s 738 mmHg 75%

    23 Martie, Sâmbătă

    Timp Temperatura Precipitaţii Vânt Presiune Umiditate
    00:00 -2°C° 0 mm 7 m/s 738 mmHg 75%
    01:00 -2°C° 0 mm 7 m/s 738 mmHg 76%
    02:00 -2°C° 0 mm 7 m/s 739 mmHg 76%
    03:00 -3°C° 0 mm 7 m/s 739 mmHg 76%
    04:00 -3°C° 0 mm 7 m/s 740 mmHg 77%
    05:00 -3°C° 0 mm 6 m/s 740 mmHg 77%
    06:00 -3°C° 0 mm 6 m/s 741 mmHg 76%
    07:00 -3°C° 0 mm 6 m/s 741 mmHg 75%
    08:00 -3°C° 0 mm 6 m/s 742 mmHg 74%
    09:00 -2°C° 0 mm 6 m/s 742 mmHg 73%
    10:00 -1°C° 0 mm 5 m/s 742 mmHg 71%
    11:00 0°C° 0 mm 5 m/s 742 mmHg 70%
    12:00 0°C° 0 mm 4 m/s 741 mmHg 69%
    13:00 0°C° 0 mm 4 m/s 741 mmHg 69%
    14:00 +1°C° 0 mm 4 m/s 740 mmHg 68%
    15:00 +1°C° 0.2 mm 3 m/s 740 mmHg 74%
    16:00 0°C° 0.2 mm 3 m/s 739 mmHg 79%
    17:00 0°C° 0.2 mm 3 m/s 739 mmHg 85%
    18:00 +1°C° 0.1 mm 2 m/s 739 mmHg 87%
    19:00 -1°C° 0.1 mm 2 m/s 738 mmHg 89%
    20:00 -1°C° 0.1 mm 2 m/s 738 mmHg 91%
    21:00 -1°C° 0 mm 2 m/s 738 mmHg 91%
    22:00 -1°C° 0 mm 3 m/s 739 mmHg 90%
    23:00 -1°C° 0 mm 3 m/s 739 mmHg 90%

    24 Martie, Duminică

    Timp Temperatura Precipitaţii Vânt Presiune Umiditate
    00:00 -1°C° 0 mm 3 m/s 739 mmHg 89%
    01:00 -1°C° 0 mm 3 m/s 740 mmHg 87%
    02:00 -1°C° 0 mm 3 m/s 740 mmHg 86%
    03:00 -1°C° 0 mm 3 m/s 740 mmHg 86%
    04:00 -1°C° 0 mm 3 m/s 741 mmHg 86%
    05:00 -1°C° 0 mm 3 m/s 741 mmHg 87%
    06:00 -2°C° 0 mm 4 m/s 741 mmHg 85%
    07:00 -2°C° 0 mm 4 m/s 741 mmHg 83%
    08:00 -2°C° 0 mm 4 m/s 742 mmHg 82%
    09:00 -1°C° 0 mm 4 m/s 742 mmHg 77%
    10:00 0°C° 0 mm 4 m/s 742 mmHg 72%
    11:00 +2°C° 0 mm 3 m/s 742 mmHg 68%
    12:00 +2°C° 0 mm 3 m/s 741 mmHg 65%
    13:00 +3°C° 0 mm 3 m/s 741 mmHg 62%
    14:00 +3°C° 0 mm 3 m/s 741 mmHg 60%
    15:00 +4°C° 0 mm 2 m/s 740 mmHg 64%
    16:00 +3°C° 0 mm 2 m/s 740 mmHg 68%
    17:00 +4°C° 0 mm 1 m/s 739 mmHg 73%
    18:00 +3°C° 0 mm 1 m/s 739 mmHg 77%
    19:00 +2°C° 0 mm 1 m/s 738 mmHg 80%
    20:00 +1°C° 0 mm 1 m/s 738 mmHg 84%
    21:00 +1°C° 0 mm 1 m/s 737 mmHg 86%
    22:00 +1°C° 0 mm 1 m/s 737 mmHg 88%
    23:00 +1°C° 0 mm 1 m/s 736 mmHg 89%
    Arată mai mult